Wind_Speed
38 37 39 44 41 35 32 33 33 33 33 32 32 32 32 32 32 30 26 25 25 25 28 30 31 34 32 28 27 28 27 25 24 24 24 25 24 24 24 25 27 28 29 30 30 31 31 33 35 37 39 40 42 42 43 45 47 50 52 54 56 57 58 60 62 63 64 65 66 66 65 65 64 64 65 65 66 66 66 66 67 67 68 68 69 70
39 38 43 45 39 35 35 35 35 35 34 34 34 34 33 34 35 32 28 27 27 26 30 32 31 34 34 30 29 29 28 26 24 25 26 26 26 26 27 28 28 29 30 31 32 33 34 35 37 39 40 42 43 44 45 47 49 52 54 56 57 58 59 61 64 66 67 69 70 70 69 68 67 67 68 68 68 69 69 69 69 70 70 71 71 72
39 40 45 44 38 38 38 36 37 36 36 36 35 35 35 37 36 34 32 30 29 28 30 32 31 34 35 33 32 31 29 27 26 28 28 28 29 29 29 30 30 31 33 34 35 36 37 38 40 41 42 44 45 46 48 50 52 54 56 58 58 59 62 64 67 69 70 71 72 72 71 70 69 69 70 70 70 71 71 71 71 72 72 73 73 75
40 42 45 42 40 40 39 38 38 38 38 38 36 36 37 39 37 35 35 33 32 31 32 33 32 34 36 34 34 34 31 30 29 30 31 31 32 31 31 32 33 35 36 36 38 39 40 42 43 44 45 46 48 49 51 53 55 57 58 59 60 62 65 67 70 71 73 74 74 74 73 72 71 71 72 72 72 72 72 72 72 72 73 74 75 77
40 43 45 44 43 41 40 40 40 39 40 39 38 37 39 40 38 37 37 36 34 33 34 34 32 34 38 36 36 36 34 33 33 33 34 34 34 34 35 36 37 38 39 40 41 43 44 45 46 47 48 49 51 52 54 56 58 59 61 61 63 66 68 71 73 75 76 76 77 76 76 74 74 74 74 74 74 74 74 74 74 74 75 76 77 79
42 44 46 46 45 42 41 41 42 42 42 40 39 39 40 41 40 40 39 37 36 35 37 36 32 34 39 40 38 38 38 37 36 37 37 38 38 38 39 40 42 42 43 44 45 47 47 48 49 50 51 52 54 56 57 59 60 62 63 64 66 69 72 74 77 78 79 79 79 79 78 77 77 77 77 77 77 76 76 75 76 77 78 79 80 82
44 47 47 46 45 44 42 43 45 45 42 39 41 43 43 43 43 42 40 39 37 37 39 38 36 34 38 43 43 41 41 40 41 41 41 42 42 43 45 45 46 47 47 48 49 50 51 52 53 54 55 56 57 59 60 61 63 64 65 67 69 72 75 78 80 81 82 81 81 80 79 79 79 80 80 80 79 79 78 78 79 80 81 82 84 85
48 49 47 47 46 45 44 46 48 47 42 40 43 46 45 45 45 43 42 41 39 38 38 41 41 36 37 45 47 45 45 44 45 46 46 46 48 48 49 50 50 51 52 53 53 54 55 56 57 58 59 60 61 62 63 64 65 66 68 70 73 76 78 81 82 83 83 82 81 80 80 81 81 82 82 82 81 81 81 82 82 83 84 86 87 88
50 49 48 49 47 46 47 49 49 47 44 42 44 47 47 48 47 45 44 43 41 39 38 42 46 39 36 45 49 47 49 49 49 50 50 51 52 52 53 54 55 55 56 57 58 58 59 60 61 62 63 64 65 66 66 67 68 69 71 74 77 80 82 84 85 85 84 83 82 82 82 83 83 84 83 83 83 83 84 85 86 87 88 89 91 92
50 50 50 50 48 48 50 50 49 48 46 45 46 48 49 50 48 47 46 44 44 40 39 45 49 43 38 43 51 52 52 53 53 54 54 55 56 56 57 58 59 60 60 61 62 62 63 63 64 64 66 67 68 68 69 70 71 72 74 77 80 83 85 86 87 86 85 84 84 84 84 85 85 85 85 84 85 86 87 88 89 91 92 93 95 96
52 52 52 50 50 50 50 50 50 50 48 47 48 48 50 51 50 49 47 47 45 40 43 50 52 47 39 41 53 57 56 57 57 57 58 58 59 61 62 63 63 63 64 65 65 66 66 66 67 67 67 68 69 70 71 72 73 74 77 81 84 87 88 89 88 87 86 85 85 85 86 87 87 86 86 87 87 89 90 92 93 94 96 97 99 100
54 53 53 52 52 52 52 52 52 52 51 50 50 50 51 51 50 49 48 48 47 44 48 54 53 49 42 43 54 59 60 62 61 61 61 62 63 65 66 66 66 67 68 68 69 69 70 70 69 69 69 69 70 71 72 73 75 77 80 84 88 90 91 91 90 88 87 87 87 87 88 88 87 87 88 89 90 92 94 95 97 98 100 101 103 104
56 55 54 54 54 54 55 54 53 53 53 53 52 51 52 52 50 50 50 51 51 49 51 54 54 50 47 50 56 58 62 64 64 64 65 66 67 68 69 70 70 71 71 72 72 72 73 72 72 71 71 72 72 73 73 74 77 80 84 87 91 92 93 92 91 90 89 88 88 89 89 88 88 89 90 91 93 95 96 98 100 101 103 104 105 106
57 56 56 56 56 56 56 55 54 54 54 54 53 54 54 53 52 52 53 54 53 52 53 54 54 52 51 55 59 60 62 64 65 67 68 69 71 71 72 73 74 74 74 74 74 75 75 74 74 74 74 75 75 74 75 77 80 83 87 90 93 94 93 92 91 90 90 90 90 89 89 89 90 91 92 94 96 97 99 101 103 104 106 107 108 108
59 57 58 58 57 57 56 55 55 55 54 53 54 55 54 55 56 55 56 56 55 55 55 54 55 53 54 58 61 62 63 65 67 68 69 71 72 74 75 76 77 76 76 76 76 76 76 76 76 76 77 78 77 77 78 81 84 87 91 93 94 94 93 92 91 91 91 91 90 90 90 91 92 93 95 97 98 100 102 104 106 107 108 110 111 111
60 57 58 60 58 58 57 57 56 55 54 53 54 54 54 58 59 57 57 57 57 57 56 55 56 55 56 59 61 63 65 67 69 69 71 73 75 77 79 79 79 78 78 78 78 78 78 78 78 78 80 80 79 79 81 84 88 91 94 95 95 95 94 93 92 92 91 91 91 91 91 93 94 96 98 100 102 104 107 109 110 111 112 114 115 114
60 58 59 60 59 59 59 58 58 57 55 54 53 53 57 60 60 57 57 57 58 58 55 55 57 57 59 60 61 64 67 69 70 71 73 75 78 80 81 81 80 80 81 81 80 80 79 79 79 80 80 80 80 82 85 88 91 94 96 96 96 95 95 94 93 93 92 92 92 92 94 95 97 100 102 105 108 111 113 114 114 115 117 118 118 117
62 60 60 61 60 60 61 60 59 58 57 56 55 57 61 61 58 58 58 57 58 57 54 55 57 58 60 61 62 65 68 69 71 73 75 78 80 82 82 82 82 83 83 82 81 81 81 80 80 80 80 80 82 85 88 91 94 96 97 97 97 96 95 94 94 93 93 93 93 94 96 98 101 104 106 109 113 115 117 118 118 120 121 121 120 118
63 62 61 61 61 61 62 62 60 59 59 60 60 62 62 61 60 61 60 58 59 58 56 56 58 59 61 63 65 67 69 71 73 76 79 81 82 83 84 84 84 84 84 83 82 82 82 81 81 80 81 83 86 89 92 95 97 98 98 98 97 96 95 95 94 94 93 94 95 97 99 102 105 107 110 114 117 119 120 121 123 124 124 123 120 118
62 62 61 61 63 63 63 62 61 62 64 64 63 63 63 62 63 63 64 63 63 63 61 60 61 62 64 67 68 70 72 74 77 80 83 84 85 85 86 86 86 85 84 84 83 82 82 81 81 83 85 87 90 93 95 97 98 98 98 98 97 96 96 95 94 94 95 96 97 99 102 105 109 112 115 119 121 122 123 125 126 126 124 122 119 116
61 60 60 62 63 63 62 63 64 65 66 65 64 64 65 66 66 67 67 67 67 67 66 66 65 64 67 70 72 74 76 78 81 84 86 86 86 86 87 86 86 85 85 84 83 81 81 82 84 86 88 91 94 96 98 98 98 99 98 97 97 97 96 95 95 96 97 98 100 103 106 109 112 116 120 122 124 125 126 127 127 126 124 121 117 113
62 63 62 62 61 60 61 63 65 65 65 65 66 65 66 68 69 69 69 70 71 72 72 71 70 68 70 73 74 77 79 81 84 86 87 87 87 87 87 86 86 85 84 83 81 82 83 85 88 90 92 95 97 98 98 99 99 99 98 98 98 97 97 96 96 97 98 101 103 107 110 114 117 121 124 126 127 128 129 128 127 125 123 119 115 110
67 68 66 64 62 62 63 64 65 65 65 66 65 65 67 70 71 72 72 72 74 74 74 74 72 71 72 75 76 78 80 83 85 87 88 88 88 88 87 86 86 85 83 82 82 85 87 90 92 94 96 97 97 98 98 99 99 98 98 98 98 98 97 97 98 99 101 104 108 112 116 120 123 126 127 129 129 130 129 128 126 124 121 116 112 107
73 72 70 68 66 66 67 66 65 65 65 65 65 67 70 71 72 74 73 74 74 73 73 75 74 72 73 75 76 78 80 84 86 88 89 90 89 88 87 87 86 84 83 84 86 89 92 94 95 96 97 97 97 98 98 98 98 98 99 99 99 98 98 99 99 101 104 108 112 118 123 126 128 129 130 131 131 131 129 127 125 122 118 113 109 106
76 75 74 72 70 69 68 67 66 66 67 68 69 70 71 71 73 74 74 75 74 71 73 76 74 72 74 75 76 77 80 83 85 87 88 88 87 86 86 85 84 84 85 87 90 94 95 96 96 96 96 97 97 97 97 98 98 99 100 100 99 99 99 100 101 104 107 112 117 123 128 130 131 132 133 133 132 131 129 127 124 120 115 111 108 105
78 78 76 75 72 70 70 70 69 71 72 72 70 70 70 71 73 74 75 75 72 70 73 75 75 75 77 78 78 79 81 83 84 85 85 84 84 84 84 83 83 85 88 91 95 97 97 97 97 97 96 96 97 97 97 99 100 100 100 101 101 101 101 103 105 108 113 118 124 128 132 133 134 134 135 134 133 131 129 126 122 117 113 110 107 104
80 80 78 78 77 75 75 74 73 74 74 72 70 71 71 72 73 74 75 73 72 73 73 72 75 77 78 80 82 81 82 84 83 83 83 83 83 84 83 83 85 89 93 97 98 98 98 97 97 96 96 96 97 98 99 101 101 102 102 103 103 104 106 108 111 115 120 125 129 132 134 135 136 137 137 136 134 131 128 124 120 115 112 109 106 104
82 82 80 80 81 81 80 79 77 77 76 74 73 73 73 75 76 77 77 76 77 78 73 70 75 79 78 82 84 83 84 85 85 85 85 84 85 85 85 87 90 95 98 98 99 98 98 97 96 96 96 97 99 101 102 103 104 105 106 106 108 110 112 115 117 122 126 130 133 135 136 137 138 139 139 137 135 132 127 122 118 114 110 107 105 104
86 84 83 84 85 85 85 84 81 80 79 78 76 76 76 78 79 80 80 80 81 80 75 74 79 80 80 84 86 85 87 88 87 87 87 87 87 87 89 92 96 98 98 98 98 98 97 96 96 96 98 100 103 104 104 105 107 108 109 111 114 116 119 122 125 128 131 134 137 138 138 139 140 140 139 137 135 130 125 120 115 112 109 106 105 103
90 88 87 88 89 88 88 87 85 84 83 81 79 79 78 79 81 83 84 85 84 82 80 81 84 82 82 86 88 89 91 92 91 90 89 89 89 90 92 95 96 97 97 97 96 95 95 96 98 100 102 104 105 106 107 108 110 111 113 117 119 122 126 129 131 133 136 138 139 140 141 142 141 140 139 137 133 128 123 118 114 110 108 105 104 102
92 91 90 91 92 92 90 89 89 87 85 84 82 80 79 80 84 86 87 87 87 86 85 88 88 84 83 88 91 92 93 93 93 93 91 91 90 91 93 94 95 95 95 95 94 95 96 98 101 103 105 105 106 108 110 112 113 116 119 122 125 129 132 135 136 138 140 141 142 143 144 143 142 141 138 135 130 125 120 116 112 109 107 104 102 100
93 93 92 93 95 93 91 91 91 89 89 88 83 80 81 83 87 90 90 91 91 89 90 92 89 85 86 90 92 92 93 93 93 92 92 92 92 92 93 94 95 95 94 94 95 97 100 102 104 105 106 107 109 111 113 115 118 121 124 127 131 134 137 139 140 142 143 144 146 146 146 145 143 140 137 133 128 123 118 115 111 109 106 104 101 99
95 95 94 95 96 95 93 92 92 92 95 91 82 80 85 89 91 93 92 91 91 92 93 93 90 88 90 91 92 93 93 93 93 92 92 92 92 92 93 94 95 94 95 96 98 101 104 105 106 106 108 111 112 114 117 120 123 126 129 133 136 138 141 142 144 145 146 148 149 149 148 145 142 139 135 130 125 121 117 114 111 109 106 103 100 98
96 96 96 96 97 96 94 94 95 97 96 88 82 84 90 92 94 94 92 90 91 93 95 94 92 91 92 93 93 94 94 94 93 93 93 93 94 95 95 95 96 97 99 101 104 106 107 107 108 109 111 113 115 118 121 124 127 131 134 137 140 142 144 145 146 148 150 152 152 151 148 145 141 137 133 128 124 120 117 114 111 108 105 102 100 98
98 98 97 97 98 98 96 96 98 98 93 87 87 89 91 92 95 95 93 92 93 94 95 95 94 94 94 94 95 96 95 95 94 94 95 96 97 96 97 98 101 103 105 107 109 110 110 111 112 113 114 116 119 123 126 128 132 135 138 141 143 145 146 147 150 152 154 155 154 152 149 145 141 136 131 127 123 120 117 114 110 107 104 102 100 98
99 99 99 99 99 100 99 99 99 97 93 90 90 90 90 94 96 97 96 93 92 94 95 96 96 96 96 98 98 97 97 96 96 97 99 101 100 99 101 105 107 109 111 112 113 113 114 115 116 117 118 122 125 127 130 133 136 139 142 144 145 147 148 151 153 155 156 156 155 152 149 144 139 133 128 125 122 119 116 113 110 107 105 102 100 97
100 99 99 99 100 101 100 100 99 98 95 92 90 90 93 96 98 98 97 94 92 94 97 98 99 100 101 102 101 100 100 101 100 102 104 105 104 105 109 111 113 114 115 115 116 117 118 118 119 121 124 126 129 131 134 137 140 143 145 146 148 150 152 154 156 158 158 156 154 152 147 141 135 130 127 124 121 118 116 113 110 107 104 102 99 97
99 98 98 98 99 100 100 101 101 99 96 92 92 94 97 98 98 99 100 96 93 96 101 103 105 105 105 104 104 105 106 106 105 106 109 109 110 113 115 116 116 117 117 118 119 119 120 121 123 126 128 130 133 135 138 141 144 146 148 149 151 153 155 157 159 159 158 156 154 150 143 137 132 129 126 124 121 118 115 112 110 107 103 101 98 96
98 98 98 99 101 101 101 102 102 101 98 94 95 98 99 99 100 102 104 100 96 99 105 107 107 108 108 108 110 111 111 110 110 111 113 114 116 118 119 118 119 119 120 121 121 122 123 125 128 130 132 134 136 139 142 145 147 149 151 152 154 155 157 159 160 159 158 156 152 146 139 134 131 128 125 123 120 117 114 111 108 105 102 99 97 95
100 100 100 102 102 102 103 104 104 103 100 98 98 99 100 101 103 105 106 103 100 103 107 107 109 110 111 112 113 114 114 115 115 116 117 119 120 120 120 121 121 122 122 123 124 125 127 129 131 132 135 138 141 144 146 148 150 152 153 155 156 158 160 161 160 160 158 154 148 141 135 132 129 126 124 121 118 115 112 108 105 102 99 97 95 94
101 101 101 102 103 104 105 106 106 105 103 100 100 101 102 104 107 108 107 105 104 105 106 108 110 112 113 114 116 116 118 118 119 120 121 122 122 122 122 123 123 124 125 126 127 129 130 132 134 136 139 142 145 147 149 151 153 154 156 157 159 161 162 161 161 159 155 148 141 136 132 129 127 124 122 119 115 112 109 105 102 100 98 96 94 92
102 102 103 104 105 107 108 110 110 108 104 103 105 106 106 108 109 109 109 109 109 109 109 110 112 113 114 116 118 120 121 122 122 123 123 123 124 124 124 124 125 126 128 129 130 132 133 135 138 141 144 146 148 150 152 154 156 157 158 160 162 162 162 161 159 155 148 141 135 132 129 126 124 121 119 115 112 109 105 102 100 98 96 94 93 91
104 105 105 106 108 110 112 114 113 111 108 109 112 112 111 112 114 114 114 114 115 115 115 115 115 116 118 120 122 123 124 124 124 124 124 125 125 124 124 125 127 129 130 132 134 136 138 140 142 145 148 150 152 154 156 157 158 159 160 162 163 163 162 159 154 147 140 135 132 129 126 124 121 118 115 112 108 105 102 100 98 96 95 93 92 91
106 107 107 109 111 114 116 117 116 115 114 115 117 118 118 119 120 119 119 120 121 121 121 121 121 123 124 125 127 127 126 126 126 126 125 125 124 124 126 128 130 131 134 136 138 141 143 144 147 149 151 153 155 157 158 159 160 161 163 164 164 162 159 153 147 140 136 132 129 126 124 121 118 115 112 108 105 102 100 98 96 95 93 92 91 90
107 108 110 113 115 118 119 120 120 119 119 120 121 123 124 125 124 124 124 125 126 126 126 126 127 128 129 129 129 128 128 128 127 126 125 125 125 127 129 131 133 136 139 141 144 145 146 148 150 152 154 157 158 159 160 161 162 164 165 165 163 159 153 146 141 137 133 130 127 124 122 118 115 112 108 105 102 100 98 97 95 94 93 92 91 89
112 113 115 117 119 121 122 122 123 123 123 124 125 127 128 128 128 128 128 129 130 130 130 131 132 132 132 131 131 130 129 128 127 126 126 127 129 131 133 135 139 142 144 146 147 148 150 151 153 156 158 160 161 162 162 163 165 166 165 163 159 153 146 141 137 134 131 128 125 122 119 115 112 108 106 103 100 98 97 96 94 93 92 91 90 89
117 118 119 121 122 123 124 124 125 126 127 128 129 130 131 132 132 132 132 133 134 134 135 135 135 134 134 133 132 131 129 128 127 128 130 131 133 136 139 142 145 147 149 150 151 152 153 155 157 159 161 162 163 164 165 166 166 165 163 158 152 147 142 138 134 131 129 126 123 119 115 112 109 106 103 101 99 97 96 95 94 93 92 91 89 88
121 122 123 124 125 126 127 127 128 129 130 131 132 134 135 136 136 136 137 137 138 138 138 137 137 136 135 134 132 131 130 130 131 132 134 136 139 142 144 147 149 150 152 153 155 156 158 159 161 162 163 164 166 167 167 167 165 162 157 151 146 142 138 135 132 129 127 124 120 116 113 109 107 104 102 99 98 97 96 95 94 93 91 90 89 88
124 125 126 127 128 130 130 131 131 132 132 133 134 136 137 138 139 140 141 141 141 141 140 139 138 136 135 134 133 133 133 134 135 137 139 142 144 146 149 150 152 154 156 158 159 161 162 163 164 164 165 166 168 168 167 165 162 157 151 145 141 138 135 132 129 127 124 120 117 114 110 107 104 102 99 98 96 95 95 94 93 92 91 89 88 88
127 128 129 131 132 133 133 133 134 134 135 136 137 139 140 141 143 144 144 144 143 142 141 140 139 137 136 135 136 136 137 139 141 143 144 146 148 150 152 154 156 158 160 162 163 164 165 166 166 167 168 168 168 167 165 161 157 151 145 141 137 134 132 129 127 124 120 117 114 111 108 104 101 99 97 95 94 93 93 92 91 90 89 88 87 87
129 130 132 133 134 135 135 136 136 137 138 139 141 142 143 144 145 145 145 145 144 143 142 141 140 139 139 140 140 141 142 143 145 146 148 149 151 154 156 158 160 161 163 165 166 167 168 168 169 169 169 167 166 163 160 156 150 145 140 137 134 132 129 127 124 121 117 114 111 108 105 102 99 97 95 93 92 91 91 90 89 88 87 86 86 85
Wind_Direction
261 262 261 260 261 263 263 260 259 258 259 258 258 258 259 261 263 266 268 268 268 270 271 274 276 276 279 281 278 276 276 275 274 273 274 277 281 285 285 285 286 287 290 293 297 300 301 301 302 304 306 308 309 310 311 311 311 312 312 312 311 311 310 310 309 309 309 308 306 305 303 302 300 299 297 294 292 290 288 287 287 286 286 285 284 283
261 261 261 261 263 264 261 260 260 259 259 258 257 257 258 260 263 268 269 269 271 271 270 274 277 275 278 281 278 274 273 273 273 273 274 278 280 280 280 280 282 284 289 292 295 297 297 298 300 302 304 305 306 306 306 307 309 311 311 310 308 307 307 307 307 307 307 306 305 304 302 301 300 299 297 295 293 291 290 289 288 287 287 286 285 285
260 260 260 263 264 262 261 261 260 260 259 258 257 257 257 259 263 268 269 270 272 272 271 274 275 273 275 278 277 274 272 272 273 273 274 276 277 276 275 276 278 282 286 289 291 293 293 294 296 298 300 301 302 302 303 304 306 308 308 307 306 305 305 305 305 306 305 304 303 302 301 300 299 298 296 295 293 292 291 290 289 288 288 287 287 286
260 260 262 264 263 261 261 260 260 260 260 259 257 257 256 259 263 266 268 269 270 272 272 272 272 271 273 276 275 273 272 272 272 272 273 275 275 275 274 275 277 280 282 285 287 288 289 291 293 294 296 298 299 299 299 300 302 304 306 305 303 304 304 304 304 304 303 301 301 300 299 299 298 297 296 294 293 292 291 290 290 289 289 289 288 287
259 261 262 262 261 260 260 260 261 260 259 259 258 258 258 261 264 264 265 267 269 271 271 271 270 269 271 274 272 271 271 271 272 272 274 275 275 274 274 275 277 279 281 282 283 284 286 289 291 293 295 296 297 296 296 297 299 301 303 302 301 302 303 303 303 302 301 300 299 298 298 298 298 297 296 294 293 292 292 291 291 291 291 291 290 289
258 259 260 260 261 260 261 261 260 258 257 259 260 260 260 261 263 263 263 265 268 270 270 270 268 266 270 272 270 270 271 272 274 274 275 275 275 275 275 276 277 278 280 281 281 283 285 287 289 290 292 293 294 294 294 295 297 299 300 300 300 300 301 302 302 301 300 299 298 298 298 298 297 296 295 294 294 294 294 295 295 295 295 294 293 292
259 258 258 260 261 261 261 261 260 258 258 260 261 260 260 261 262 264 265 266 267 268 270 271 267 265 269 270 270 270 270 273 274 275 275 276 276 276 276 276 278 279 279 280 281 282 284 285 286 288 289 290 291 291 293 294 295 296 298 298 299 299 300 301 301 300 300 299 299 298 298 298 297 296 295 295 295 296 297 298 299 298 298 297 296 296
258 258 258 260 260 261 261 260 260 260 260 260 260 260 262 262 263 264 265 267 268 268 271 271 267 265 267 268 269 270 271 272 273 274 275 276 276 276 277 278 279 279 280 281 282 283 285 286 286 287 288 289 290 291 292 294 294 295 296 297 298 299 300 300 300 300 300 299 299 299 298 297 296 295 295 295 297 299 300 301 301 301 300 300 299 299
257 259 259 259 259 260 260 260 261 262 261 260 260 261 262 262 264 265 266 267 268 269 272 270 267 266 266 267 269 269 270 272 272 273 275 275 276 277 278 279 280 281 282 283 284 285 286 287 288 288 289 289 290 291 292 294 294 295 296 297 299 300 300 300 300 300 300 300 299 298 297 296 295 295 296 297 299 301 302 303 303 303 303 302 302 302
257 258 258 259 259 260 260 260 262 262 261 260 260 260 261 263 264 265 267 268 269 271 271 268 266 266 265 267 269 268 268 270 272 273 274 275 277 278 279 280 281 282 283 284 285 287 288 288 289 289 290 290 291 291 292 293 294 294 295 297 298 299 299 300 300 300 300 300 299 298 296 295 295 296 298 300 301 303 304 304 305 305 305 305 305 304
255 256 257 258 259 259 260 262 262 263 262 261 260 261 261 263 264 266 267 268 269 271 268 265 266 267 266 266 267 268 268 269 271 272 274 276 277 278 279 280 282 283 284 285 286 287 289 290 290 291 292 292 292 292 293 293 294 294 295 297 298 299 299 300 300 301 300 299 298 297 295 295 296 298 300 302 304 305 306 306 306 306 307 307 307 306
254 255 257 258 259 260 261 261 262 262 263 262 262 262 263 264 265 266 267 268 268 267 263 264 267 268 267 264 263 266 268 269 271 273 275 276 277 278 280 281 283 284 284 285 287 289 290 291 292 293 294 294 294 293 293 293 294 295 296 297 298 298 299 300 300 300 299 298 296 295 295 296 298 300 302 304 305 306 307 307 308 308 308 308 307 307
256 256 257 258 259 260 260 261 262 263 263 263 263 264 265 265 266 266 267 267 266 264 264 266 269 269 268 265 262 263 266 268 271 274 275 277 278 279 281 283 284 285 286 287 289 290 291 292 293 293 294 294 293 292 292 293 294 294 295 295 296 297 298 299 299 299 298 297 295 294 295 297 299 301 303 304 306 307 307 308 308 308 308 308 307 306
258 258 258 259 259 260 261 262 263 264 264 265 265 266 266 266 266 266 265 265 265 266 266 268 271 272 270 267 263 262 263 267 270 272 274 276 277 279 281 282 283 284 285 287 288 289 290 291 292 292 292 292 291 290 290 291 292 292 293 294 295 297 298 298 298 298 297 295 294 295 296 298 300 302 304 305 306 307 307 308 308 308 308 308 307 306
259 259 260 260 261 262 263 264 264 265 265 265 266 266 267 268 266 264 264 265 265 266 267 269 271 272 270 267 266 264 264 265 267 270 272 274 276 277 279 280 281 282 283 285 286 288 289 290 290 290 290 289 289 288 289 290 291 292 293 295 296 297 297 298 297 296 295 295 295 297 299 300 302 303 305 305 306 307 308 309 309 309 309 309 308 307
259 260 261 262 263 263 264 264 265 265 265 266 266 268 268 267 266 265 265 266 267 267 268 270 270 270 268 267 267 267 267 267 268 269 271 273 274 275 276 278 279 281 283 284 286 288 290 290 290 289 289 288 287 287 289 290 291 293 294 295 296 297 297 297 296 295 295 296 297 299 300 301 303 304 306 307 308 310 310 311 311 311 311 310 309 308
259 259 260 262 263 263 264 264 265 265 266 266 267 268 267 266 267 268 268 267 268 268 269 270 270 269 268 267 268 268 268 269 270 271 272 273 273 274 276 278 280 282 284 286 288 289 290 290 289 289 288 288 287 288 289 291 292 293 295 296 296 296 296 296 295 296 296 298 299 301 302 304 306 308 309 311 312 313 313 313 313 313 312 311 310 308
259 258 259 260 261 263 264 264 265 266 266 266 266 266 265 266 268 269 269 269 270 270 269 269 269 269 269 269 269 269 270 271 272 273 273 273 274 275 277 279 281 283 285 287 289 290 290 289 289 288 288 287 288 289 290 291 292 293 294 295 295 295 295 295 296 297 298 300 302 304 306 308 309 311 312 313 314 314 314 314 314 313 313 311 310 308
260 259 259 261 262 263 263 264 265 266 266 265 264 264 265 268 270 270 271 271 271 270 269 268 268 269 270 271 271 271 272 273 274 274 274 275 276 277 279 280 282 284 286 288 289 289 289 288 288 287 287 287 288 289 290 291 292 293 293 294 294 294 295 296 297 299 301 303 305 307 308 310 311 313 314 314 314 314 314 314 314 314 313 311 310 308
262 262 261 261 261 261 263 264 265 264 264 264 264 266 268 270 270 271 271 271 271 271 271 269 269 270 272 273 274 275 276 276 276 276 276 277 278 279 280 281 283 285 286 287 288 287 287 287 287 287 287 289 289 290 290 291 292 292 293 293 294 295 296 298 300 301 303 305 307 309 310 312 313 314 315 315 315 315 315 315 314 313 312 311 309 307
265 265 263 262 262 263 264 264 264 264 265 266 267 268 269 270 270 270 271 272 272 272 271 272 273 274 275 276 276 277 277 278 277 277 278 279 279 280 280 282 283 285 285 286 286 286 286 286 287 287 288 289 289 290 290 291 292 292 292 293 294 296 298 299 301 303 305 307 309 311 312 313 314 315 315 315 315 315 315 314 314 313 311 310 308 306
266 264 263 263 264 265 264 264 264 265 266 267 268 269 270 271 270 270 270 271 271 272 274 276 277 277 277 277 277 277 277 277 277 277 278 279 279 279 280 281 283 283 284 284 284 285 286 287 287 288 288 288 289 290 290 291 291 292 292 294 296 298 299 301 303 305 306 308 311 312 314 314 315 315 315 315 315 315 314 314 313 312 311 309 307 305
264 264 264 264 264 263 263 263 265 266 268 270 271 272 271 270 269 270 271 272 274 276 278 279 278 278 277 276 276 276 276 276 276 277 277 277 277 278 280 281 281 282 282 283 284 286 287 287 288 288 288 288 289 289 290 290 291 293 294 296 298 300 301 303 305 307 309 311 313 314 315 315 315 315 315 315 315 315 314 313 312 311 309 307 305 304
263 264 264 264 263 263 264 266 268 270 271 271 270 269 268 270 272 274 275 276 277 278 280 280 280 279 278 277 277 277 277 277 277 276 276 276 278 279 280 280 280 281 282 283 285 286 287 287 287 287 287 288 288 289 290 291 292 294 296 298 299 301 303 304 306 309 311 313 314 315 315 315 315 315 315 315 315 314 313 313 311 310 308 306 304 303
263 264 264 264 264 265 266 267 268 268 268 266 266 268 271 274 276 277 278 277 278 280 281 280 280 280 279 278 278 278 278 277 278 278 278 278 279 280 279 279 280 281 283 285 286 286 286 286 287 287 288 288 288 289 291 292 294 296 298 299 301 302 303 305 307 310 312 314 315 315 315 314 315 315 315 315 314 314 313 312 310 309 307 305 304 302
262 263 264 265 265 265 265 266 266 265 265 267 269 272 274 274 276 277 278 279 281 282 280 280 280 280 279 279 278 278 278 278 279 279 280 280 280 279 279 280 281 283 284 285 286 286 287 287 288 288 288 289 290 292 294 296 298 299 301 301 302 303 305 308 310 313 314 315 315 314 314 314 315 315 315 315 314 313 312 311 309 308 306 305 303 302
261 262 263 265 265 264 264 264 264 265 266 268 270 271 272 274 276 278 279 281 283 280 279 282 282 281 280 279 278 278 279 279 279 280 280 280 279 279 280 281 282 283 284 284 285 286 287 288 288 289 290 292 294 296 299 300 301 302 304 305 306 307 310 312 313 315 315 315 314 314 314 315 315 315 315 314 314 313 311 310 308 307 306 305 303 302
259 260 261 263 264 264 264 264 264 265 267 268 270 271 274 276 277 278 280 281 281 280 282 284 282 281 280 279 279 280 279 280 280 281 281 280 279 279 280 280 281 283 284 284 286 287 288 288 290 292 294 296 299 301 302 303 305 306 307 309 310 312 313 314 315 315 315 314 314 314 314 315 315 315 315 314 313 312 310 309 308 307 305 304 303 302
259 260 261 261 262 263 264 265 265 265 267 268 270 272 274 276 277 279 279 279 280 281 282 281 279 279 280 279 279 279 279 279 280 280 281 281 280 280 279 280 281 283 284 285 286 288 289 291 294 297 299 301 303 304 305 306 307 309 310 312 313 314 314 315 315 314 314 314 314 314 315 315 315 315 314 313 312 311 310 308 307 306 305 304 303 302
260 260 261 261 262 263 264 265 266 266 267 268 269 271 273 275 277 278 278 279 279 280 279 277 277 278 279 279 278 278 278 278 279 280 280 280 280 280 280 280 282 283 285 287 288 290 293 296 299 301 303 305 305 306 307 308 310 311 313 314 314 315 314 314 314 313 313 313 314 314 315 315 315 314 313 312 311 310 309 308 307 306 305 304 303 302
261 261 262 262 263 264 265 266 267 268 268 268 268 270 273 275 276 277 277 277 277 277 276 276 277 279 278 277 277 277 277 279 280 280 281 281 282 282 282 283 285 286 288 289 291 294 297 299 302 304 305 306 306 308 309 310 311 313 314 314 314 314 313 313 313 313 313 313 314 315 315 315 314 313 312 312 311 309 308 307 306 305 305 304 303 302
262 263 264 264 265 266 267 268 268 269 269 268 269 272 274 275 274 274 273 273 274 276 276 277 278 278 277 276 277 278 279 280 280 282 283 284 285 285 286 287 288 289 291 293 295 297 300 302 304 305 306 307 308 309 310 312 313 314 314 314 313 312 312 312 312 313 313 314 314 315 314 314 313 313 312 311 310 309 308 307 306 305 305 304 303 302
262 263 264 265 266 267 267 268 269 269 268 269 273 274 274 272 272 271 272 273 275 277 278 278 279 279 278 278 279 280 281 281 283 284 286 287 288 288 289 289 291 293 294 296 298 300 302 304 305 306 307 308 309 310 311 313 314 314 313 312 312 311 311 312 312 313 313 314 314 314 314 313 313 312 312 311 310 309 308 307 306 306 305 304 303 302
261 262 264 265 266 267 268 268 268 267 269 272 275 273 271 272 272 273 275 277 278 279 280 280 280 280 280 281 281 281 282 284 285 287 288 290 290 291 291 293 295 297 298 299 301 303 304 305 305 307 308 309 310 311 312 313 313 312 312 311 310 310 311 311 312 313 313 314 314 313 313 313 312 312 311 310 309 308 308 307 306 305 305 304 303 301
262 263 264 265 267 268 268 268 268 269 272 274 273 272 273 275 276 277 278 279 280 281 281 281 282 282 282 282 282 283 284 286 288 290 292 292 293 294 296 297 298 299 301 303 304 304 305 306 307 308 308 309 311 312 312 312 311 311 310 309 310 310 310 311 312 313 313 313 313 313 313 313 312 311 310 309 309 308 307 307 306 306 305 304 303 301
263 265 266 267 268 269 269 269 270 272 273 273 273 275 277 277 278 278 279 280 281 281 282 283 284 284 285 285 286 287 288 289 291 293 294 295 296 297 299 300 300 302 303 304 304 305 305 306 307 308 309 310 311 311 311 310 309 309 308 308 309 310 311 312 312 312 313 313 313 312 313 312 311 310 309 309 308 308 307 307 306 306 305 304 302 301
266 267 268 269 269 270 270 271 271 272 273 274 276 278 278 278 279 280 281 281 282 283 284 286 287 287 287 288 289 291 291 292 294 296 296 297 299 300 300 301 302 303 303 303 304 305 306 307 308 309 309 310 309 309 308 308 307 307 307 308 309 310 311 311 311 312 312 312 312 312 312 311 310 310 309 309 308 308 307 306 306 305 304 303 302 301
267 267 268 269 269 270 271 271 272 273 275 277 278 278 278 280 281 283 283 283 284 286 287 287 288 288 289 290 291 292 293 294 296 297 298 299 300 300 300 301 302 302 302 303 304 305 306 307 308 308 308 308 307 307 306 306 306 306 307 308 309 310 310 310 311 311 311 312 312 312 311 310 309 309 308 308 307 307 306 306 305 304 303 302 301 300
266 266 267 268 268 270 271 272 274 275 277 278 278 279 280 281 283 283 283 284 285 286 286 286 287 288 290 291 292 292 294 295 297 298 298 299 299 299 300 300 300 301 302 303 305 306 306 307 307 307 307 306 305 305 305 305 305 306 307 308 308 309 309 310 310 311 311 311 311 310 310 309 309 308 308 307 307 306 305 305 304 303 302 301 300 299
266 266 267 268 269 271 272 273 274 275 277 278 278 279 280 281 282 282 283 284 285 284 285 286 287 288 290 291 292 293 295 296 296 297 297 298 298 298 299 299 300 301 303 304 305 305 305 306 306 305 304 303 303 303 304 304 305 306 307 308 308 309 309 310 310 311 311 310 310 309 308 308 307 307 307 306 305 305 304 304 303 302 301 300 299 298
267 268 268 269 270 271 272 273 275 275 277 278 279 279 279 280 280 281 282 283 283 283 284 286 287 288 290 291 293 294 294 295 295 296 296 297 297 297 298 300 301 303 303 303 304 304 304 304 303 302 302 302 302 303 303 304 305 306 307 307 308 308 309 310 310 310 310 309 308 308 307 307 306 306 305 305 304 304 303 302 301 300 300 299 298 297
268 268 268 269 271 272 274 275 276 277 279 280 280 279 279 280 280 281 283 283 284 285 286 286 288 290 291 292 293 293 293 294 294 295 295 296 297 298 299 301 301 302 302 302 302 302 302 301 301 300 300 301 302 303 303 304 305 306 307 307 308 308 309 309 309 309 308 307 307 306 306 306 305 305 304 304 303 303 302 301 301 300 299 298 298 297
267 267 268 270 272 273 275 276 278 280 281 281 280 280 281 282 282 283 284 285 286 287 288 289 290 291 291 292 292 292 293 293 293 294 295 296 297 298 299 300 300 300 300 300 300 300 300 299 299 299 300 301 302 303 304 304 305 306 306 307 307 308 308 308 308 307 307 306 306 306 305 305 304 304 303 303 303 302 301 301 300 299 299 298 298 297
266 268 269 271 272 273 275 277 279 280 281 281 281 282 282 283 283 284 285 286 287 288 289 290 290 290 290 291 291 291 292 292 293 294 296 297 297 298 298 298 298 298 298 298 298 298 298 298 299 299 300 301 302 303 304 304 305 306 306 307 307 308 308 307 307 306 306 306 305 305 305 304 304 303 303 303 302 302 301 300 299 299 298 298 297 297
265 266 268 270 272 274 275 277 279 280 281 281 281 281 282 282 283 284 285 286 287 288 289 289 289 289 289 290 290 291 292 293 294 296 296 296 297 297 297 297 296 296 296 296 297 297 297 298 298 299 300 301 302 303 303 304 305 306 306 307 307 307 307 306 306 305 305 305 305 304 304 304 303 303 303 302 302 301 300 300 299 298 298 297 297 297
264 265 267 269 272 273 275 277 278 279 279 280 280 280 281 281 282 283 284 286 287 288 288 288 288 288 289 290 291 292 293 294 295 295 295 296 296 296 295 295 295 295 295 296 296 296 297 298 299 300 300 301 302 303 303 304 305 306 306 306 306 306 305 305 305 305 305 304 304 304 304 303 303 303 303 302 301 301 300 299 299 298 297 297 297 297
264 266 267 269 271 273 274 276 277 277 277 278 279 279 280 281 282 283 285 286 286 287 287 287 287 288 290 291 292 293 293 293 293 293 294 294 294 294 294 294 294 294 294 295 295 296 297 298 299 300 300 301 302 303 303 304 305 305 305 305 305 304 304 304 304 304 304 303 303 303 303 303 303 303 303 302 301 300 299 299 298 297 297 297 297 296
264 266 268 269 271 272 273 275 275 275 276 277 278 279 280 281 282 283 284 284 285 285 286 287 288 290 291 292 292 291 291 291 292 292 292 292 293 293 293 293 293 294 294 295 296 297 298 299 299 300 300 301 302 302 303 304 304 305 304 304 304 303 304 304 304 304 303 303 303 303 303 303 303 303 302 301 300 299 299 298 297 297 297 296 296 296
265 266 268 269 271 271 272 273 274 274 275 277 277 278 279 280 281 282 283 283 284 285 287 288 289 290 290 290 290 290 290 290 290 290 290 291 292 292 292 292 293 293 294 295 296 297 298 298 299 300 300 301 301 302 303 303 303 303 303 303 303 303 303 303 303 303 303 303 303 303 303 303 302 302 301 300 299 298 297 297 296 296 296 296 296 295
265 267 268 269 270 271 272 273 274 275 275 276 277 277 278 279 280 281 283 284 285 286 287 288 288 288 288 288 288 288 288 288 289 289 290 290 291 291 291 292 292 293 294 295 296 297 298 298 299 299 300 300 301 302 302 302 302 302 302 302 302 302 302 302 302 302 302 302 302 302 302 302 301 300 299 298 297 297 296 296 296 296 295 295 295 294
265 266 268 269 270 271 272 273 274 274 275 276 277 277 278 279 280 281 283 284 285 285 285 285 285 286 286 286 287 287 287 288 288 289 289 289 290 290 291 292 292 293 294 295 296 297 297 298 299 299 300 300 301 301 301 301 301 301 301 301 302 302 302 302 302 302 302 302 302 302 301 301 300 299 298 297 296 295 295 295 295 295 294 294 293 293
Height
10758 10760 10758 10753 10756 10762 10764 10764 10764 10764 10764 10764 10764 10764 10764 10763 10763 10764 10768 10769 10768 10769 10767 10766 10766 10763 10762 10765 10766 10765 10764 10765 10765 10764 10763 10763 10763 10763 10762 10762 10762 10761 10761 10760 10760 10760 10759 10758 10757 10755 10754 10753 10751 10750 10748 10747 10745 10744 10742 10741 10739 10737 10736 10734 10732 10730 10729 10727 10725 10724 10722 10720 10719 10717 10715 10712 10710 10707 10705 10702 10700 10697 10694 10692 10689 10686
10754 10756 10751 10748 10755 10758 10758 10759 10759 10760 10760 10760 10760 10760 10760 10759 10758 10760 10763 10764 10764 10765 10763 10762 10762 10759 10758 10760 10761 10760 10760 10760 10760 10760 10759 10759 10759 10759 10758 10758 10758 10757 10757 10756 10756 10756 10755 10754 10753 10751 10750 10749 10747 10746 10744 10742 10740 10739 10737 10735 10734 10732 10730 10728 10725 10724 10722 10720 10718 10716 10714 10713 10711 10709 10707 10704 10701 10699 10696 10693 10690 10688 10685 10682 10679 10676
10750 10750 10745 10746 10752 10752 10753 10755 10755 10755 10755 10755 10756 10757 10756 10755 10754 10756 10758 10759 10760 10761 10760 10758 10758 10756 10754 10756 10756 10755 10756 10755 10756 10755 10754 10754 10754 10754 10754 10754 10753 10753 10752 10752 10751 10751 10750 10749 10748 10746 10745 10744 10743 10741 10739 10737 10735 10733 10732 10730 10728 10725 10723 10721 10718 10716 10714 10712 10709 10707 10706 10704 10702 10700 10698 10695 10692 10689 10686 10683 10681 10678 10675 10672 10669 10666
10746 10744 10741 10744 10747 10747 10749 10750 10750 10751 10750 10751 10752 10753 10752 10750 10752 10753 10753 10754 10755 10756 10756 10755 10755 10753 10750 10752 10751 10750 10750 10750 10750 10750 10749 10750 10749 10749 10749 10749 10748 10748 10747 10747 10746 10745 10744 10743 10742 10741 10740 10739 10737 10736 10734 10732 10730 10728 10726 10724 10721 10719 10716 10714 10711 10709 10706 10703 10701 10699 10697 10695 10693 10691 10688 10685 10682 10680 10677 10674 10671 10668 10665 10661 10658 10654
10742 10739 10738 10738 10740 10742 10744 10744 10745 10746 10745 10746 10747 10748 10747 10746 10748 10749 10749 10750 10751 10752 10751 10750 10752 10749 10745 10747 10746 10745 10745 10745 10745 10745 10744 10744 10744 10744 10744 10743 10742 10742 10742 10741 10741 10739 10738 10737 10736 10735 10734 10732 10731 10730 10728 10726 10724 10722 10720 10718 10715 10712 10709 10707 10704 10701 10698 10695 10693 10690 10688 10686 10683 10680 10678 10675 10672 10669 10667 10663 10660 10657 10653 10650 10646 10643
10736 10734 10732 10732 10734 10737 10739 10740 10739 10739 10740 10742 10743 10743 10742 10742 10743 10744 10744 10745 10747 10747 10745 10745 10749 10747 10741 10740 10741 10740 10740 10740 10740 10740 10739 10739 10738 10738 10737 10737 10736 10736 10736 10735 10734 10733 10732 10731 10730 10729 10727 10726 10725 10723 10721 10720 10718 10716 10713 10711 10708 10705 10702 10699 10696 10693 10689 10687 10684 10681 10679 10676 10673 10670 10667 10664 10661 10659 10656 10652 10649 10645 10642 10638 10634 10630
10730 10727 10726 10727 10729 10731 10733 10734 10731 10732 10736 10739 10738 10736 10737 10738 10738 10739 10740 10741 10743 10743 10741 10740 10743 10744 10739 10734 10734 10736 10735 10735 10735 10734 10734 10733 10733 10732 10731 10730 10730 10730 10729 10729 10728 10727 10726 10725 10724 10723 10721 10720 10718 10716 10714 10713 10710 10708 10706 10703 10700 10697 10694 10691 10688 10684 10681 10678 10675 10672 10669 10666 10663 10660 10657 10654 10650 10647 10644 10641 10637 10633 10630 10625 10622 10618
10722 10720 10722 10723 10724 10726 10727 10726 10724 10727 10733 10735 10732 10730 10732 10732 10732 10734 10735 10736 10738 10738 10738 10736 10735 10740 10739 10730 10728 10730 10729 10729 10729 10728 10728 10727 10726 10725 10724 10724 10724 10723 10722 10722 10721 10720 10719 10718 10717 10716 10714 10713 10711 10709 10707 10705 10702 10700 10697 10694 10691 10688 10685 10682 10679 10675 10672 10669 10666 10663 10659 10656 10653 10650 10646 10643 10639 10636 10632 10628 10625 10621 10617 10613 10609 10605
10715 10716 10717 10717 10719 10720 10720 10719 10719 10722 10726 10729 10727 10725 10726 10726 10727 10728 10729 10731 10733 10734 10736 10731 10727 10734 10737 10727 10723 10725 10723 10722 10722 10722 10721 10721 10719 10719 10718 10717 10717 10716 10715 10715 10714 10713 10713 10712 10711 10709 10707 10705 10703 10701 10699 10696 10694 10691 10688 10685 10682 10678 10675 10672 10669 10666 10663 10660 10656 10653 10649 10645 10642 10639 10635 10631 10627 10624 10620 10616 10612 10608 10604 10599 10595 10591
10710 10710 10709 10711 10713 10713 10712 10713 10715 10716 10719 10722 10721 10720 10720 10720 10721 10722 10725 10726 10727 10732 10732 10724 10720 10727 10732 10727 10718 10717 10718 10715 10715 10715 10714 10714 10713 10712 10711 10710 10709 10709 10708 10708 10707 10706 10706 10705 10704 10702 10700 10698 10696 10693 10691 10688 10685 10682 10678 10675 10672 10669 10666 10662 10659 10656 10653 10649 10646 10642 10638 10635 10631 10627 10623 10619 10615 10611 10607 10603 10599 10595 10590 10586 10581 10576
10703 10703 10703 10705 10706 10706 10707 10708 10709 10709 10712 10714 10715 10715 10714 10714 10716 10717 10720 10720 10722 10729 10725 10716 10715 10720 10728 10727 10714 10709 10710 10708 10708 10708 10707 10707 10706 10705 10704 10703 10702 10702 10701 10700 10700 10699 10699 10698 10696 10695 10693 10690 10688 10685 10682 10679 10676 10672 10669 10665 10662 10659 10655 10653 10650 10647 10643 10639 10635 10631 10628 10624 10619 10615 10611 10606 10602 10598 10594 10589 10585 10581 10577 10572 10567 10562
10696 10697 10698 10699 10700 10701 10701 10701 10702 10703 10705 10706 10708 10708 10708 10709 10711 10712 10715 10714 10716 10721 10716 10709 10711 10715 10722 10723 10712 10705 10703 10700 10701 10700 10700 10700 10698 10697 10696 10695 10695 10694 10693 10692 10691 10691 10690 10688 10687 10685 10683 10681 10678 10676 10673 10669 10666 10662 10659 10655 10652 10648 10646 10643 10640 10636 10633 10629 10625 10621 10617 10613 10608 10604 10599 10594 10590 10585 10581 10576 10572 10567 10563 10558 10552 10547
10690 10691 10692 10693 10693 10693 10693 10694 10696 10697 10698 10699 10701 10702 10701 10703 10705 10707 10708 10707 10708 10711 10709 10706 10707 10710 10715 10713 10707 10704 10699 10694 10694 10693 10692 10692 10689 10688 10687 10686 10686 10684 10683 10683 10682 10682 10680 10679 10678 10676 10675 10672 10670 10667 10664 10661 10657 10653 10650 10646 10643 10640 10637 10633 10630 10626 10622 10619 10615 10611 10606 10602 10597 10592 10587 10582 10577 10573 10568 10563 10558 10553 10548 10543 10537 10531
10684 10685 10685 10685 10686 10686 10686 10688 10689 10690 10691 10693 10695 10695 10695 10697 10698 10700 10699 10698 10701 10703 10703 10702 10702 10706 10708 10703 10699 10699 10696 10692 10690 10688 10687 10685 10682 10681 10679 10678 10677 10676 10676 10676 10675 10674 10673 10672 10671 10669 10667 10665 10662 10659 10656 10652 10648 10645 10642 10638 10635 10632 10628 10624 10620 10616 10612 10608 10603 10599 10594 10589 10584 10580 10574 10570 10565 10560 10555 10549 10544 10539 10533 10527 10521 10516
10675 10678 10678 10677 10679 10680 10680 10681 10682 10683 10685 10687 10688 10687 10689 10689 10688 10690 10691 10691 10695 10695 10696 10698 10698 10700 10700 10694 10690 10690 10690 10689 10686 10684 10682 10680 10677 10675 10672 10671 10670 10670 10670 10669 10669 10668 10667 10666 10664 10662 10659 10656 10653 10650 10646 10642 10639 10635 10632 10628 10625 10622 10618 10613 10609 10605 10601 10596 10591 10586 10581 10576 10571 10565 10560 10555 10550 10545 10540 10535 10529 10523 10518 10511 10505 10499
10668 10673 10672 10669 10672 10673 10673 10674 10675 10676 10679 10680 10681 10682 10683 10679 10677 10681 10684 10685 10687 10688 10691 10692 10691 10692 10690 10687 10685 10683 10681 10680 10679 10679 10677 10674 10671 10667 10665 10664 10664 10664 10663 10662 10662 10661 10659 10658 10656 10653 10650 10647 10644 10640 10636 10632 10628 10625 10621 10618 10614 10610 10606 10602 10597 10593 10588 10583 10578 10573 10567 10562 10556 10550 10545 10540 10535 10530 10524 10518 10513 10507 10501 10494 10487 10481
10661 10666 10665 10663 10665 10665 10665 10667 10667 10669 10672 10673 10675 10675 10672 10668 10670 10675 10677 10678 10678 10680 10686 10685 10683 10683 10681 10681 10681 10676 10673 10672 10671 10671 10669 10665 10661 10658 10657 10656 10656 10656 10654 10653 10653 10652 10650 10648 10645 10643 10639 10636 10633 10629 10626 10622 10618 10615 10611 10607 10603 10599 10594 10590 10585 10580 10575 10570 10564 10559 10553 10547 10541 10535 10530 10524 10518 10513 10507 10501 10496 10490 10484 10477 10470 10462
10653 10656 10658 10656 10657 10658 10658 10659 10661 10663 10665 10666 10667 10665 10660 10661 10666 10667 10668 10671 10671 10673 10679 10678 10675 10675 10673 10674 10673 10669 10667 10666 10664 10663 10659 10654 10651 10649 10649 10648 10647 10647 10646 10645 10645 10643 10640 10637 10635 10633 10629 10626 10623 10619 10615 10612 10608 10605 10601 10597 10592 10587 10583 10578 10573 10568 10562 10556 10550 10544 10538 10532 10526 10521 10515 10509 10503 10497 10491 10485 10479 10473 10466 10459 10452 10445
10643 10646 10650 10650 10650 10651 10650 10652 10655 10656 10655 10655 10656 10654 10654 10657 10660 10659 10660 10664 10663 10664 10670 10671 10669 10668 10667 10666 10664 10662 10660 10658 10656 10652 10648 10644 10643 10641 10640 10639 10638 10638 10637 10637 10636 10633 10630 10627 10625 10622 10618 10615 10612 10608 10605 10601 10598 10594 10590 10585 10581 10576 10571 10565 10560 10555 10548 10542 10536 10530 10524 10518 10512 10507 10501 10495 10488 10483 10477 10470 10464 10457 10450 10443 10435 10427
10634 10637 10642 10643 10641 10641 10643 10646 10647 10646 10644 10644 10647 10649 10649 10651 10652 10651 10651 10653 10655 10656 10659 10661 10662 10663 10661 10657 10655 10654 10652 10649 10645 10641 10636 10634 10634 10633 10631 10629 10628 10629 10628 10627 10625 10622 10619 10617 10614 10611 10607 10605 10601 10597 10594 10591 10587 10583 10578 10574 10569 10563 10558 10553 10547 10541 10534 10528 10522 10517 10511 10505 10499 10493 10487 10481 10475 10470 10463 10457 10450 10442 10435 10427 10419 10411
10626 10627 10631 10632 10632 10635 10638 10638 10636 10635 10636 10638 10641 10643 10642 10642 10642 10643 10643 10644 10644 10645 10648 10651 10654 10658 10655 10650 10648 10645 10642 10639 10633 10629 10626 10625 10625 10623 10621 10620 10620 10619 10618 10616 10614 10612 10609 10606 10603 10600 10597 10594 10590 10586 10583 10579 10575 10570 10566 10561 10556 10551 10546 10540 10534 10527 10521 10515 10509 10503 10497 10491 10485 10480 10474 10468 10462 10456 10449 10442 10435 10427 10419 10411 10404 10396
10617 10616 10619 10623 10626 10629 10629 10627 10626 10628 10631 10631 10633 10635 10635 10633 10632 10633 10635 10635 10634 10635 10639 10641 10646 10651 10648 10643 10641 10637 10632 10629 10623 10619 10617 10616 10615 10613 10612 10612 10611 10609 10607 10606 10604 10601 10598 10596 10593 10590 10587 10583 10579 10575 10571 10567 10562 10557 10552 10547 10542 10537 10532 10527 10520 10514 10507 10501 10495 10489 10483 10477 10472 10466 10461 10455 10449 10442 10435 10427 10420 10412 10403 10395 10388 10381
10605 10606 10610 10614 10618 10618 10617 10619 10620 10622 10624 10624 10627 10628 10624 10621 10621 10622 10626 10628 10626 10627 10631 10632 10635 10641 10638 10634 10632 10628 10623 10619 10615 10612 10609 10606 10604 10604 10605 10603 10600 10598 10597 10596 10594 10591 10588 10585 10582 10579 10575 10572 10568 10564 10559 10554 10549 10543 10539 10534 10529 10523 10518 10512 10506 10500 10493 10487 10480 10474 10467 10462 10458 10453 10447 10441 10434 10427 10420 10412 10404 10396 10387 10379 10372 10365
10595 10596 10600 10604 10608 10609 10610 10614 10615 10616 10618 10618 10617 10614 10610 10612 10613 10614 10618 10619 10619 10622 10623 10620 10624 10629 10627 10622 10620 10618 10613 10609 10606 10603 10600 10597 10597 10598 10596 10593 10590 10589 10588 10586 10583 10580 10577 10574 10571 10568 10564 10560 10556 10551 10546 10541 10535 10530 10525 10520 10515 10509 10503 10498 10492 10486 10480 10473 10466 10459 10452 10447 10443 10439 10433 10426 10419 10411 10403 10396 10388 10379 10371 10363 10356 10349
10585 10587 10590 10593 10598 10602 10604 10607 10608 10608 10606 10604 10604 10604 10605 10607 10605 10605 10607 10606 10610 10617 10613 10609 10614 10616 10613 10610 10609 10607 10601 10596 10595 10592 10589 10589 10589 10589 10586 10583 10582 10581 10578 10575 10572 10568 10565 10562 10559 10556 10552 10548 10543 10537 10532 10526 10521 10516 10511 10505 10499 10494 10488 10483 10478 10472 10466 10459 10452 10445 10439 10433 10429 10424 10417 10409 10402 10394 10386 10378 10370 10362 10354 10347 10340 10333
10578 10578 10581 10584 10590 10595 10596 10597 10598 10596 10592 10593 10598 10599 10599 10598 10596 10596 10596 10596 10603 10608 10603 10601 10604 10603 10601 10599 10596 10594 10589 10585 10584 10582 10579 10580 10579 10577 10576 10575 10574 10571 10567 10564 10559 10555 10553 10549 10546 10542 10538 10533 10528 10522 10517 10511 10506 10501 10495 10489 10483 10477 10473 10468 10463 10458 10452 10446 10439 10432 10425 10419 10414 10408 10400 10392 10384 10376 10369 10360 10353 10345 10338 10331 10324 10318
10569 10570 10574 10576 10579 10583 10584 10586 10588 10586 10584 10588 10592 10591 10590 10590 10588 10586 10586 10590 10594 10592 10593 10597 10594 10590 10591 10586 10581 10581 10578 10574 10574 10572 10570 10570 10568 10567 10567 10565 10563 10560 10556 10552 10547 10543 10540 10537 10533 10528 10523 10517 10511 10506 10501 10496 10491 10485 10478 10472 10465 10461 10457 10452 10448 10444 10438 10431 10425 10419 10412 10405 10398 10391 10382 10374 10366 10359 10351 10344 10336 10329 10322 10315 10309 10302
10560 10563 10568 10568 10567 10570 10572 10574 10578 10578 10578 10581 10583 10584 10584 10582 10580 10578 10579 10582 10580 10577 10587 10592 10581 10577 10581 10572 10567 10570 10566 10562 10563 10561 10560 10560 10559 10558 10557 10554 10552 10548 10544 10540 10535 10531 10527 10523 10518 10513 10507 10501 10496 10491 10486 10480 10474 10467 10460 10454 10448 10444 10440 10436 10433 10429 10423 10417 10411 10404 10398 10391 10383 10374 10365 10357 10349 10341 10335 10327 10321 10314 10307 10300 10294 10287
10550 10555 10560 10558 10556 10559 10560 10562 10567 10569 10570 10573 10575 10577 10577 10574 10572 10570 10569 10570 10567 10568 10578 10578 10567 10569 10572 10561 10556 10558 10553 10550 10551 10550 10551 10551 10550 10549 10547 10544 10540 10536 10532 10528 10523 10519 10514 10508 10503 10497 10492 10487 10482 10476 10470 10464 10457 10450 10443 10437 10431 10426 10422 10418 10416 10414 10408 10402 10395 10389 10383 10376 10368 10359 10349 10340 10332 10325 10318 10311 10305 10298 10292 10285 10279 10273
10540 10546 10549 10547 10547 10549 10550 10552 10556 10558 10561 10565 10566 10568 10569 10568 10565 10560 10558 10557 10556 10559 10564 10559 10555 10563 10564 10552 10546 10545 10540 10539 10540 10540 10541 10541 10540 10539 10536 10532 10527 10523 10519 10515 10511 10506 10500 10494 10488 10483 10478 10473 10467 10461 10454 10447 10441 10434 10429 10422 10415 10410 10406 10402 10400 10398 10393 10387 10380 10373 10367 10360 10351 10342 10333 10323 10315 10308 10301 10295 10288 10282 10276 10270 10264 10258
10529 10536 10538 10537 10535 10538 10542 10544 10544 10547 10550 10552 10556 10560 10563 10562 10556 10550 10548 10545 10543 10547 10550 10544 10544 10555 10555 10542 10534 10533 10531 10530 10529 10529 10530 10529 10529 10527 10523 10518 10514 10510 10506 10502 10497 10492 10486 10480 10475 10470 10465 10458 10452 10445 10438 10432 10426 10420 10414 10407 10401 10396 10390 10387 10384 10381 10377 10370 10363 10356 10349 10342 10334 10325 10315 10306 10299 10291 10284 10278 10272 10266 10260 10254 10248 10242
10520 10523 10525 10525 10523 10528 10535 10532 10532 10536 10534 10535 10547 10557 10556 10552 10545 10538 10536 10534 10533 10536 10535 10530 10534 10543 10539 10528 10523 10523 10522 10519 10518 10518 10518 10517 10515 10512 10508 10503 10499 10496 10492 10487 10482 10476 10471 10466 10462 10456 10450 10443 10437 10430 10424 10418 10411 10406 10400 10394 10388 10382 10377 10373 10368 10364 10359 10353 10345 10338 10331 10324 10316 10307 10298 10289 10281 10274 10267 10260 10254 10248 10243 10238 10232 10227
10510 10511 10513 10513 10511 10516 10523 10521 10522 10522 10514 10523 10547 10552 10542 10535 10529 10524 10525 10527 10526 10524 10519 10516 10522 10526 10520 10515 10513 10511 10507 10506 10507 10506 10504 10502 10501 10497 10493 10488 10484 10480 10476 10471 10466 10461 10456 10452 10447 10442 10435 10429 10422 10416 10409 10403 10397 10391 10386 10380 10374 10369 10363 10358 10352 10347 10342 10334 10328 10321 10313 10305 10298 10290 10281 10272 10263 10256 10249 10243 10237 10231 10226 10221 10216 10211
10501 10501 10503 10503 10500 10503 10510 10511 10508 10502 10504 10524 10542 10536 10524 10518 10513 10512 10516 10518 10514 10508 10504 10504 10507 10506 10503 10501 10498 10494 10493 10494 10493 10492 10489 10487 10484 10480 10476 10473 10468 10463 10458 10454 10450 10446 10441 10437 10432 10427 10421 10415 10409 10402 10395 10389 10384 10378 10372 10366 10360 10354 10349 10343 10337 10331 10324 10317 10310 10303 10294 10287 10279 10271 10263 10255 10246 10239 10232 10226 10221 10215 10210 10205 10199 10194
10491 10492 10493 10493 10491 10491 10495 10496 10489 10490 10504 10519 10521 10515 10512 10507 10500 10499 10503 10504 10500 10495 10491 10489 10490 10489 10487 10484 10481 10478 10479 10479 10477 10476 10474 10469 10467 10464 10461 10456 10451 10446 10442 10437 10433 10429 10426 10421 10417 10412 10406 10400 10394 10387 10382 10376 10371 10365 10359 10352 10347 10341 10335 10329 10323 10315 10307 10300 10292 10284 10276 10269 10261 10254 10247 10239 10231 10224 10217 10210 10205 10199 10194 10188 10183 10177
10481 10482 10482 10481 10479 10477 10479 10480 10478 10484 10496 10500 10500 10503 10502 10493 10487 10485 10486 10490 10490 10483 10477 10475 10474 10474 10470 10466 10464 10464 10463 10462 10462 10462 10457 10451 10450 10449 10444 10439 10434 10430 10427 10422 10418 10415 10411 10406 10401 10396 10390 10384 10378 10373 10368 10363 10358 10352 10345 10339 10334 10328 10322 10315 10307 10299 10291 10284 10276 10267 10260 10253 10245 10238 10230 10223 10216 10208 10201 10195 10189 10184 10179 10173 10168 10163
10471 10471 10470 10468 10465 10465 10465 10466 10467 10471 10479 10486 10491 10491 10484 10475 10474 10472 10471 10477 10479 10470 10463 10460 10459 10457 10454 10451 10450 10450 10447 10446 10448 10447 10440 10436 10436 10433 10427 10423 10420 10416 10413 10408 10405 10401 10396 10391 10386 10380 10374 10369 10364 10359 10355 10350 10344 10338 10332 10326 10320 10314 10308 10300 10292 10284 10277 10269 10261 10252 10245 10237 10229 10221 10214 10207 10200 10193 10187 10181 10175 10170 10165 10159 10154 10149
10459 10459 10459 10456 10452 10451 10451 10452 10453 10456 10466 10478 10479 10472 10465 10462 10462 10457 10453 10460 10467 10460 10449 10446 10444 10442 10441 10439 10438 10435 10432 10432 10436 10433 10426 10422 10422 10417 10411 10410 10406 10402 10399 10395 10390 10386 10380 10375 10369 10364 10359 10354 10349 10346 10341 10336 10330 10323 10317 10312 10306 10301 10294 10286 10278 10270 10262 10253 10245 10237 10230 10222 10213 10206 10198 10192 10185 10179 10173 10168 10162 10157 10151 10146 10141 10136
10448 10448 10448 10443 10439 10441 10440 10438 10439 10443 10454 10465 10463 10455 10452 10451 10449 10442 10435 10443 10456 10450 10435 10432 10432 10429 10428 10427 10424 10421 10419 10420 10422 10419 10413 10411 10408 10402 10398 10396 10392 10388 10385 10380 10374 10369 10364 10359 10354 10349 10344 10340 10336 10332 10327 10321 10315 10309 10303 10298 10293 10287 10279 10270 10262 10254 10245 10237 10229 10222 10214 10207 10199 10192 10185 10178 10172 10166 10160 10155 10149 10144 10139 10134 10129 10124
10435 10436 10435 10431 10429 10431 10429 10427 10428 10432 10441 10449 10448 10444 10442 10438 10433 10426 10421 10430 10442 10435 10424 10422 10421 10417 10416 10414 10410 10409 10407 10406 10406 10405 10401 10398 10395 10389 10385 10381 10377 10373 10368 10362 10357 10353 10348 10344 10340 10335 10331 10326 10322 10318 10312 10306 10301 10295 10290 10285 10279 10271 10262 10254 10246 10238 10230 10223 10215 10208 10201 10193 10186 10179 10172 10165 10159 10153 10148 10142 10136 10131 10126 10121 10116 10111
10423 10423 10422 10420 10419 10419 10418 10417 10417 10420 10428 10436 10435 10431 10428 10422 10417 10414 10413 10417 10422 10420 10416 10413 10408 10405 10405 10402 10399 10398 10395 10392 10393 10392 10388 10384 10380 10375 10371 10366 10362 10356 10350 10345 10341 10338 10335 10332 10327 10322 10317 10312 10308 10303 10297 10291 10286 10280 10274 10269 10262 10254 10246 10239 10232 10224 10217 10210 10202 10195 10188 10180 10173 10166 10159 10152 10147 10141 10135 10129 10123 10118 10112 10107 10103 10098
10411 10410 10408 10408 10409 10408 10406 10404 10402 10408 10419 10423 10416 10411 10411 10406 10402 10402 10402 10400 10401 10403 10403 10400 10397 10396 10394 10390 10388 10386 10382 10381 10380 10378 10375 10370 10365 10360 10356 10351 10345 10339 10334 10330 10327 10324 10322 10319 10315 10309 10303 10297 10293 10287 10281 10276 10271 10264 10259 10253 10245 10237 10231 10225 10217 10210 10203 10196 10188 10181 10174 10167 10160 10153 10146 10140 10134 10128 10122 10116 10110 10105 10099 10094 10090 10085
10396 10395 10395 10397 10398 10395 10392 10389 10390 10398 10407 10405 10394 10391 10393 10389 10383 10384 10385 10383 10383 10383 10384 10385 10386 10384 10381 10379 10376 10372 10371 10370 10366 10364 10361 10356 10350 10346 10340 10334 10328 10323 10319 10316 10313 10311 10309 10305 10300 10294 10287 10282 10276 10271 10266 10261 10255 10249 10244 10236 10228 10222 10216 10209 10201 10194 10187 10180 10173 10166 10159 10152 10146 10139 10132 10126 10120 10114 10109 10103 10097 10091 10086 10081 10076 10072
10382 10383 10384 10386 10384 10380 10377 10377 10380 10384 10388 10384 10377 10375 10373 10368 10364 10365 10367 10365 10365 10365 10368 10371 10372 10369 10367 10366 10363 10360 10359 10356 10352 10348 10345 10339 10335 10330 10324 10318 10313 10308 10305 10302 10300 10297 10294 10289 10284 10277 10271 10266 10260 10255 10251 10246 10240 10234 10227 10219 10211 10205 10199 10192 10185 10177 10170 10164 10157 10150 10144 10138 10131 10125 10118 10112 10106 10100 10095 10089 10083 10078 10073 10068 10063 10060
10371 10372 10372 10372 10370 10366 10365 10366 10367 10368 10368 10366 10361 10357 10352 10348 10348 10349 10350 10349 10349 10352 10355 10356 10355 10354 10353 10352 10350 10347 10344 10340 10336 10332 10327 10322 10318 10313 10307 10303 10299 10294 10291 10288 10285 10281 10278 10273 10268 10262 10256 10250 10244 10239 10235 10230 10224 10217 10209 10201 10194 10188 10182 10175 10168 10161 10154 10147 10141 10134 10128 10122 10116 10110 10104 10098 10093 10087 10081 10075 10070 10064 10059 10054 10050 10047
10359 10361 10360 10360 10358 10355 10354 10355 10355 10353 10351 10348 10343 10338 10334 10332 10331 10333 10335 10337 10339 10341 10340 10339 10338 10338 10337 10336 10335 10332 10327 10323 10319 10315 10310 10307 10303 10297 10293 10289 10284 10279 10276 10273 10269 10265 10262 10257 10252 10247 10241 10234 10228 10223 10218 10213 10207 10200 10192 10184 10177 10171 10165 10159 10152 10145 10138 10131 10125 10119 10113 10108 10102 10096 10090 10084 10079 10073 10067 10061 10056 10051 10046 10042 10038 10035
10348 10348 10347 10346 10346 10343 10342 10344 10342 10337 10334 10332 10326 10321 10318 10316 10315 10318 10322 10325 10327 10327 10325 10323 10322 10322 10322 10321 10319 10315 10311 10307 10303 10300 10296 10293 10289 10285 10281 10275 10268 10264 10260 10256 10252 10249 10246 10242 10237 10231 10225 10219 10212 10206 10201 10197 10191 10184 10177 10170 10161 10154 10149 10143 10136 10130 10122 10115 10109 10104 10098 10093 10087 10081 10076 10070 10065 10059 10053 10047 10042 10038 10033 10029 10026 10022
10336 10335 10334 10335 10335 10331 10329 10330 10327 10321 10318 10316 10311 10306 10303 10301 10302 10304 10307 10309 10310 10310 10308 10308 10308 10308 10307 10305 10301 10298 10296 10292 10289 10286 10283 10280 10276 10271 10265 10259 10253 10248 10242 10237 10234 10232 10229 10225 10220 10214 10209 10203 10195 10189 10184 10180 10174 10168 10162 10155 10147 10139 10133 10127 10121 10114 10107 10100 10095 10090 10084 10079 10074 10068 10062 10057 10051 10045 10040 10034 10029 10025 10021 10017 10013 10010
10323 10324 10325 10324 10320 10316 10315 10314 10311 10307 10305 10302 10298 10294 10290 10289 10289 10289 10290 10291 10292 10293 10293 10293 10293 10293 10292 10289 10286 10284 10282 10279 10275 10272 10269 10267 10262 10255 10249 10243 10237 10231 10225 10220 10216 10214 10211 10207 10203 10198 10193 10187 10179 10172 10168 10163 10157 10151 10146 10139 10132 10125 10118 10112 10106 10098 10092 10086 10081 10076 10071 10066 10061 10055 10050 10044 10039 10033 10027 10022 10017 10013 10009 10005 10001 9997
10311 10313 10312 10307 10303 10302 10301 10298 10295 10295 10293 10288 10284 10281 10279 10276 10274 10273 10272 10274 10274 10276 10277 10276 10276 10277 10276 10274 10272 10271 10269 10266 10261 10258 10255 10252 10246 10239 10233 10227 10221 10215 10210 10204 10200 10197 10192 10188 10185 10181 10177 10171 10163 10157 10153 10147 10140 10134 10129 10123 10117 10110 10103 10097 10090 10084 10078 10072 10066 10062 10057 10052 10047 10042 10037 10032 10027 10021 10016 10010 10006 10002 9998 9994 9990 9986
10297 10298 10296 10292 10290 10288 10285 10283 10281 10281 10278 10272 10267 10267 10265 10262 10259 10258 10259 10260 10260 10260 10260 10260 10261 10262 10262 10260 10258 10256 10254 10250 10246 10243 10240 10235 10229 10223 10217 10211 10206 10201 10195 10189 10185 10181 10176 10171 10167 10163 10159 10153 10146 10141 10136 10130 10124 10118 10112 10107 10101 10094 10087 10081 10075 10069 10064 10059 10053 10048 10044 10038 10033 10028 10024 10020 10015 10009 10004 9999 9995 9991 9987 9982 9979 9974